| time (UTC) | temp F | wind direction | speed knots | gust knots | rain 1hr in | rain 24hr in | rain mn in | humidity % | barometer mb |
| 20260507172019 | 81 | 198 | 2.6 | 7.8 | 0.00 | 0.00 | 0.00 | 27 | 1021.0 |
| 20260507171419 | 81 | 242 | 1.7 | 9.6 | 0.00 | 0.00 | 0.00 | 25 | 1021.2 |
| 20260507170820 | 81 | 106 | 1.7 | 9.6 | 0.00 | 0.00 | 0.00 | 25 | 1021.2 |
| 20260507170219 | 80 | 96 | 3.5 | 6.1 | 0.00 | 0.00 | 0.00 | 26 | 1021.2 |
| 20260507165618 | 80 | 50 | 0.9 | 7.8 | 0.00 | 0.00 | 0.00 | 27 | 1021.3 |
| 20260507165018 | 79 | 111 | 0.0 | 10.4 | 0.00 | 0.00 | 0.00 | 28 | 1021.4 |
| 20260507164443 | 79 | 7 | 0.0 | 9.6 | 0.00 | 0.00 | 0.00 | 30 | 1021.4 |
| 20260507163831 | 79 | 107 | 3.5 | 10.4 | 0.00 | 0.00 | 0.00 | 29 | 1021.4 |
| 20260507163218 | 79 | 114 | 1.7 | 6.1 | 0.00 | 0.00 | 0.00 | 30 | 1021.6 |
| 20260507162618 | 79 | 116 | 1.7 | 10.4 | 0.00 | 0.00 | 0.00 | 31 | 1021.6 |
| 20260507162019 | 78 | 204 | 0.0 | 6.1 | 0.00 | 0.00 | 0.00 | 32 | 1021.7 |
| 20260507161418 | 78 | 109 | 0.9 | 6.1 | 0.00 | 0.00 | 0.00 | 34 | 1021.7 |
| 20260507160819 | 77 | 185 | 3.5 | 7.8 | 0.00 | 0.00 | 0.00 | 35 | 1021.9 |
| 20260507160218 | 77 | 134 | 0.0 | 7.0 | 0.00 | 0.00 | 0.00 | 38 | 1021.9 |
| 20260507155618 | 76 | 126 | 2.6 | 5.2 | 0.00 | 0.00 | 0.00 | 37 | 1021.9 |
| 20260507155018 | 76 | 89 | 0.0 | 8.7 | 0.00 | 0.00 | 0.00 | 39 | 1021.9 |
| 20260507154419 | 76 | 121 | 3.5 | 7.0 | 0.00 | 0.00 | 0.00 | 39 | 1021.9 |
| 20260507153818 | 75 | 153 | 0.0 | 3.5 | 0.00 | 0.00 | 0.00 | 41 | 1022.0 |
| 20260507153219 | 75 | 111 | 0.0 | 5.2 | 0.00 | 0.00 | 0.00 | 41 | 1022.0 |
| 20260507152618 | 75 | 13 | 0.0 | 5.2 | 0.00 | 0.00 | 0.00 | 40 | 1022.0 |
| 20260507152019 | 73 | 114 | 1.7 | 6.1 | 0.00 | 0.00 | 0.00 | 41 | 1022.1 |
| 20260507151418 | 73 | 107 | 0.9 | 6.1 | 0.00 | 0.00 | 0.00 | 44 | 1022.2 |
| 20260507150818 | 74 | 104 | 3.5 | 7.0 | 0.00 | 0.00 | 0.00 | 45 | 1022.2 |
| 20260507150218 | 73 | 96 | 0.0 | 5.2 | 0.00 | 0.00 | 0.00 | 47 | 1022.2 |
| 20260507145618 | 72 | 119 | 2.6 | 7.0 | 0.00 | 0.00 | 0.00 | 48 | 1022.2 |
| 20260507145019 | 72 | 134 | 0.9 | 5.2 | 0.00 | 0.00 | 0.00 | 50 | 1022.3 |
| 20260507144418 | 72 | 86 | 0.0 | 2.6 | 0.00 | 0.00 | 0.00 | 50 | 1022.3 |
| 20260507143818 | 72 | 64 | 0.9 | 3.5 | 0.00 | 0.00 | 0.00 | 51 | 1022.2 |
| 20260507143219 | 71 | 113 | 1.7 | 2.6 | 0.00 | 0.00 | 0.00 | 52 | 1022.2 |
| 20260507142631 | 70 | 24 | 0.0 | 3.5 | 0.00 | 0.00 | 0.00 | 53 | 1022.2 |
| 20260507142019 | 71 | 155 | 0.0 | 1.7 | 0.00 | 0.00 | 0.00 | 53 | 1022.3 |
| 20260507141418 | 71 | 96 | 0.0 | 0.9 | 0.00 | 0.00 | 0.00 | 53 | 1022.4 |
| 20260507140818 | 70 | 53 | 0.0 | 1.7 | 0.00 | 0.00 | 0.00 | 55 | 1022.3 |
| 20260507140218 | 69 | 110 | 0.0 | 3.5 | 0.00 | 0.00 | 0.00 | 57 | 1022.3 |
| 20260507135618 | 67 | 118 | 0.0 | 4.3 | 0.00 | 0.00 | 0.00 | 60 | 1022.4 |
| 20260507135018 | 66 | 109 | 0.0 | 2.6 | 0.00 | 0.00 | 0.00 | 61 | 1022.4 |
| 20260507134418 | 66 | 101 | 1.7 | 2.6 | 0.00 | 0.00 | 0.00 | 62 | 1022.4 |
| 20260507133819 | 65 | 104 | 0.0 | 2.6 | 0.00 | 0.00 | 0.00 | 62 | 1022.2 |
| 20260507133219 | 65 | 96 | 0.0 | 2.6 | 0.00 | 0.00 | 0.00 | 62 | 1022.2 |
| 20260507132618 | 65 | 74 | 0.0 | 2.6 | 0.00 | 0.00 | 0.00 | 65 | 1022.2 |
| 20260507132019 | 63 | 294 | 0.0 | 4.3 | 0.00 | 0.00 | 0.00 | 66 | 1022.2 |
| 20260507131418 | 61 | 297 | 0.9 | 3.5 | 0.00 | 0.00 | 0.00 | 69 | 1022.3 |
| 20260507130818 | 60 | 308 | 0.0 | 4.3 | 0.00 | 0.00 | 0.00 | 72 | 1022.3 |
| 20260507130218 | 58 | 298 | 1.7 | 5.2 | 0.00 | 0.00 | 0.00 | 74 | 1022.3 |
| 20260507125630 | 57 | 313 | 1.7 | 5.2 | 0.00 | 0.00 | 0.00 | 77 | 1022.3 |
| 20260507125018 | 56 | 308 | 1.7 | 4.3 | 0.00 | 0.00 | 0.00 | 80 | 1022.3 |
| 20260507124418 | 55 | 295 | 0.0 | 3.5 | 0.00 | 0.00 | 0.00 | 82 | 1022.1 |
| 20260507123831 | 54 | 279 | 1.7 | 4.3 | 0.00 | 0.00 | 0.00 | 83 | 1022.1 |
| 20260507123218 | 53 | 297 | 1.7 | 5.2 | 0.00 | 0.00 | 0.00 | 85 | 1022.0 |
| 20260507122618 | 52 | 292 | 1.7 | 3.5 | 0.00 | 0.00 | 0.00 | 87 | 1022.0 |
| 20260507122018 | 52 | 308 | 1.7 | 6.1 | 0.00 | 0.00 | 0.00 | 86 | 1022.0 |
| 20260507121418 | 52 | 300 | 2.6 | 5.2 | 0.00 | 0.00 | 0.00 | 86 | 1022.0 |
| 20260507120818 | 52 | 296 | 1.7 | 3.5 | 0.00 | 0.00 | 0.00 | 86 | 1022.0 |
| 20260507120218 | 52 | 304 | 1.7 | 5.2 | 0.00 | 0.00 | 0.00 | 87 | 1022.0 |
| 20260507115618 | 52 | 292 | 1.7 | 5.2 | 0.00 | 0.00 | 0.00 | 86 | 1022.0 |
| 20260507115018 | 53 | 285 | 1.7 | 5.2 | 0.00 | 0.00 | 0.00 | 86 | 1021.9 |
| 20260507114418 | 52 | 312 | 1.7 | 5.2 | 0.00 | 0.00 | 0.00 | 85 | 1021.9 |
| 20260507113818 | 53 | 272 | 1.7 | 4.3 | 0.00 | 0.00 | 0.00 | 84 | 1021.9 |
| 20260507113218 | 54 | 299 | 1.7 | 5.2 | 0.00 | 0.00 | 0.00 | 84 | 1021.8 |
| 20260507112618 | 54 | 275 | 1.7 | 4.3 | 0.00 | 0.00 | 0.00 | 83 | 1021.8 |
| 20260507112018 | 54 | 274 | 1.7 | 7.0 | 0.00 | 0.00 | 0.00 | 82 | 1021.7 |
| 20260507111418 | 54 | 279 | 1.7 | 6.1 | 0.00 | 0.00 | 0.00 | 82 | 1021.7 |
| 20260507110818 | 53 | 271 | 1.7 | 7.0 | 0.00 | 0.00 | 0.00 | 85 | 1021.7 |
| 20260507110218 | 53 | 292 | 1.7 | 4.3 | 0.00 | 0.00 | 0.00 | 86 | 1021.7 |
| 20260507105618 | 55 | 305 | 0.9 | 4.3 | 0.00 | 0.00 | 0.00 | 85 | 1021.7 |
| 20260507105018 | 55 | 283 | 1.7 | 3.5 | 0.00 | 0.00 | 0.00 | 85 | 1021.7 |
| 20260507104418 | 55 | 296 | 1.7 | 4.3 | 0.00 | 0.00 | 0.00 | 84 | 1021.7 |
| 20260507103818 | 55 | 295 | 1.7 | 4.3 | 0.00 | 0.00 | 0.00 | 84 | 1021.7 |
| 20260507103218 | 54 | 320 | 1.7 | 6.1 | 0.00 | 0.00 | 0.00 | 86 | 1021.7 |
| 20260507102618 | 54 | 305 | 2.6 | 4.3 | 0.00 | 0.00 | 0.00 | 86 | 1021.7 |
| 20260507102018 | 53 | 300 | 1.7 | 3.5 | 0.00 | 0.00 | 0.00 | 88 | 1021.5 |
| 20260507101418 | 54 | 262 | 0.9 | 1.7 | 0.00 | 0.00 | 0.00 | 87 | 1021.5 |
| 20260507100819 | 55 | 275 | 0.9 | 2.6 | 0.00 | 0.00 | 0.00 | 85 | 1021.5 |
| 20260507100219 | 56 | 331 | 0.0 | 2.6 | 0.00 | 0.00 | 0.00 | 83 | 1021.5 |
| 20260507095618 | 56 | 310 | 0.0 | 2.6 | 0.00 | 0.00 | 0.00 | 84 | 1021.5 |
| 20260507095018 | 57 | 328 | 0.9 | 2.6 | 0.00 | 0.00 | 0.00 | 82 | 1021.4 |
| 20260507094418 | 57 | 325 | 0.9 | 2.6 | 0.00 | 0.00 | 0.00 | 81 | 1021.4 |
| 20260507093818 | 57 | 297 | 0.0 | 2.6 | 0.00 | 0.00 | 0.00 | 81 | 1021.4 |
| 20260507093218 | 58 | 313 | 0.9 | 2.6 | 0.00 | 0.00 | 0.00 | 77 | 1021.3 |
| 20260507092630 | 57 | 328 | 0.0 | 2.6 | 0.00 | 0.00 | 0.00 | 78 | 1021.4 |
| 20260507092018 | 57 | 329 | 0.0 | 3.5 | 0.00 | 0.00 | 0.00 | 79 | 1021.4 |
| 20260507091418 | 57 | 325 | 1.7 | 3.5 | 0.00 | 0.00 | 0.00 | 80 | 1021.4 |
| 20260507090819 | 57 | 291 | 1.7 | 3.5 | 0.00 | 0.00 | 0.00 | 81 | 1021.3 |
| 20260507090218 | 57 | 305 | 1.7 | 2.6 | 0.00 | 0.00 | 0.00 | 78 | 1021.4 |
| 20260507085643 | 57 | 306 | 0.0 | 2.6 | 0.00 | 0.00 | 0.00 | 78 | 1021.4 |
| 20260507085030 | 57 | 318 | 0.0 | 2.6 | 0.00 | 0.00 | 0.00 | 79 | 1021.4 |
| 20260507084443 | 56 | 284 | 0.0 | 3.5 | 0.00 | 0.00 | 0.00 | 81 | 1021.5 |
| 20260507083818 | 56 | 295 | 1.7 | 4.3 | 0.00 | 0.00 | 0.00 | 82 | 1021.6 |
| 20260507083231 | 57 | 298 | 1.7 | 2.6 | 0.00 | 0.00 | 0.00 | 79 | 1021.6 |
| 20260507082618 | 57 | 295 | 0.0 | 3.5 | 0.00 | 0.00 | 0.00 | 80 | 1021.6 |
| 20260507082018 | 57 | 270 | 1.7 | 3.5 | 0.00 | 0.00 | 0.00 | 78 | 1021.6 |
| 20260507081418 | 57 | 283 | 0.9 | 5.2 | 0.00 | 0.00 | 0.00 | 78 | 1021.7 |
| 20260507080819 | 57 | 321 | 2.6 | 4.3 | 0.00 | 0.00 | 0.00 | 77 | 1021.7 |
| 20260507080218 | 57 | 302 | 0.9 | 3.5 | 0.00 | 0.00 | 0.00 | 76 | 1021.7 |
| 20260507075618 | 56 | 292 | 1.7 | 5.2 | 0.00 | 0.00 | 0.00 | 76 | 1021.7 |
| 20260507075018 | 55 | 298 | 1.7 | 4.3 | 0.00 | 0.00 | 0.00 | 78 | 1021.8 |
| 20260507074418 | 55 | 309 | 1.7 | 5.2 | 0.00 | 0.00 | 0.00 | 79 | 1021.8 |
| 20260507073818 | 55 | 289 | 1.7 | 4.3 | 0.00 | 0.00 | 0.00 | 80 | 1021.8 |
| 20260507073218 | 54 | 295 | 1.7 | 4.3 | 0.00 | 0.00 | 0.00 | 79 | 1021.8 |
| 20260507072618 | 55 | 305 | 1.7 | 3.5 | 0.00 | 0.00 | 0.00 | 76 | 1021.8 |
| 20260507072018 | 55 | 297 | 1.7 | 3.5 | 0.00 | 0.00 | 0.00 | 73 | 1021.9 |
| 20260507071430 | 55 | 289 | 1.7 | 3.5 | 0.00 | 0.00 | 0.00 | 74 | 1021.8 |
| 20260507070818 | 55 | 286 | 0.0 | 3.5 | 0.00 | 0.00 | 0.00 | 73 | 1021.8 |
| 20260507070218 | 55 | 272 | 1.7 | 4.3 | 0.00 | 0.00 | 0.00 | 71 | 1021.8 |
| 20260507065618 | 55 | 284 | 1.7 | 4.3 | 0.00 | 0.00 | 0.00 | 70 | 1021.9 |
| 20260507065018 | 55 | 284 | 2.6 | 2.6 | 0.00 | 0.00 | 0.00 | 68 | 1021.8 |
| 20260507064430 | 56 | 316 | 0.0 | 3.5 | 0.00 | 0.00 | 0.00 | 66 | 1022.0 |
| 20260507063818 | 56 | 270 | 0.9 | 1.7 | 0.00 | 0.00 | 0.00 | 67 | 1022.0 |
| 20260507063218 | 56 | 274 | 1.7 | 3.5 | 0.00 | 0.00 | 0.00 | 70 | 1022.0 |
| 20260507062618 | 57 | 310 | 1.7 | 2.6 | 0.00 | 0.00 | 0.00 | 67 | 1022.0 |
| 20260507062018 | 57 | 296 | 0.0 | 2.6 | 0.00 | 0.00 | 0.00 | 65 | 1022.0 |
| 20260507061418 | 57 | 290 | 0.0 | 4.3 | 0.00 | 0.00 | 0.00 | 65 | 1022.0 |
| 20260507060830 | 56 | 251 | 2.6 | 6.1 | 0.00 | 0.00 | 0.00 | 66 | 1022.0 |
| 20260507060218 | 57 | 296 | 1.7 | 6.1 | 0.00 | 0.00 | 0.00 | 65 | 1022.0 |
| 20260507055618 | 56 | 281 | 1.7 | 5.2 | 0.00 | 0.00 | 0.00 | 68 | 1022.1 |
| 20260507055018 | 56 | 288 | 2.6 | 3.5 | 0.00 | 0.00 | 0.00 | 68 | 1022.0 |
| 20260507054418 | 56 | 289 | 1.7 | 3.5 | 0.00 | 0.00 | 0.00 | 67 | 1022.0 |
| 20260507053819 | 56 | 293 | 1.7 | 3.5 | 0.00 | 0.00 | 0.00 | 66 | 1022.0 |
| 20260507053218 | 56 | 299 | 1.7 | 3.5 | 0.00 | 0.00 | 0.00 | 66 | 1022.0 |
| 20260507052632 | 57 | 299 | 1.7 | 3.5 | 0.00 | 0.00 | 0.00 | 66 | 1021.9 |
| 20260507052018 | 57 | 299 | 1.7 | 2.6 | 0.00 | 0.00 | 0.00 | 62 | 1022.0 |
| 20260507051419 | 57 | 280 | 0.0 | 3.5 | 0.00 | 0.00 | 0.00 | 62 | 1022.0 |
| 20260507050818 | 57 | 279 | 1.7 | 3.5 | 0.00 | 0.00 | 0.00 | 64 | 1021.9 |
| 20260507050218 | 58 | 308 | 1.7 | 4.3 | 0.00 | 0.00 | 0.00 | 61 | 1021.8 |
| 20260507045631 | 58 | 276 | 1.7 | 3.5 | 0.00 | 0.00 | 0.00 | 63 | 1021.8 |
| 20260507045018 | 58 | 261 | 0.9 | 2.6 | 0.00 | 0.00 | 0.00 | 61 | 1021.7 |
| 20260507044418 | 58 | 285 | 0.9 | 3.5 | 0.00 | 0.00 | 0.00 | 60 | 1021.7 |
| 20260507043818 | 59 | 265 | 1.7 | 3.5 | 0.00 | 0.00 | 0.00 | 61 | 1021.5 |
| 20260507043218 | 59 | 308 | 1.7 | 5.2 | 0.00 | 0.00 | 0.00 | 61 | 1021.4 |
| 20260507042618 | 58 | 280 | 1.7 | 2.6 | 0.00 | 0.00 | 0.00 | 67 | 1021.4 |
| 20260507042018 | 58 | 316 | 0.9 | 3.5 | 0.00 | 0.00 | 0.00 | 66 | 1021.2 |
| 20260507041418 | 58 | 242 | 1.7 | 1.7 | 0.00 | 0.00 | 0.00 | 69 | 1021.3 |
| 20260507040830 | 60 | 256 | 0.0 | 2.6 | 0.00 | 0.00 | 0.00 | 63 | 1021.1 |
| 20260507040218 | 60 | 348 | 0.0 | 1.7 | 0.00 | 0.00 | 0.00 | 64 | 1021.2 |
| 20260507035618 | 61 | 338 | 0.0 | 2.6 | 0.00 | 0.00 | 0.00 | 64 | 1021.1 |
| 20260507035055 | 62 | 328 | 0.0 | 2.6 | 0.00 | 0.00 | 0.00 | 61 | 1021.1 |
| 20260507034418 | 62 | 276 | 0.9 | 3.5 | 0.00 | 0.00 | 0.00 | 63 | 1021.1 |
| 20260507033818 | 63 | 263 | 0.0 | 1.7 | 0.00 | 0.00 | 0.00 | 60 | 1020.9 |
| 20260507033218 | 66 | 107 | 0.0 | 2.6 | 0.00 | 0.00 | 0.00 | 54 | 1020.9 |
| 20260507032618 | 68 | 93 | 0.0 | 7.0 | 0.00 | 0.00 | 0.00 | 49 | 1020.8 |
| 20260507032018 | 69 | 95 | 1.7 | 7.0 | 0.00 | 0.00 | 0.00 | 48 | 1020.7 |
| 20260507031418 | 69 | 82 | 2.6 | 7.8 | 0.00 | 0.00 | 0.00 | 48 | 1020.5 |
| 20260507030818 | 69 | 69 | 1.7 | 7.8 | 0.00 | 0.00 | 0.00 | 47 | 1020.4 |
| 20260507030218 | 70 | 85 | 1.7 | 7.8 | 0.00 | 0.00 | 0.00 | 46 | 1020.4 |
| 20260507025618 | 70 | 75 | 2.6 | 10.4 | 0.00 | 0.00 | 0.00 | 45 | 1020.3 |
| 20260507025018 | 70 | 85 | 2.6 | 11.3 | 0.00 | 0.00 | 0.00 | 44 | 1020.2 |
| 20260507024418 | 71 | 83 | 3.5 | 10.4 | 0.00 | 0.00 | 0.00 | 43 | 1020.0 |
| 20260507023830 | 71 | 59 | 3.5 | 11.3 | 0.00 | 0.00 | 0.00 | 43 | 1020.0 |
| 20260507023218 | 72 | 60 | 4.3 | 12.2 | 0.00 | 0.00 | 0.00 | 42 | 1020.0 |
| 20260507022618 | 72 | 59 | 5.2 | 10.4 | 0.00 | 0.00 | 0.00 | 40 | 1019.7 |
| 20260507022018 | 73 | 51 | 5.2 | 11.3 | 0.00 | 0.00 | 0.00 | 38 | 1019.7 |
| 20260507021418 | 73 | 68 | 3.5 | 9.6 | 0.00 | 0.00 | 0.00 | 35 | 1019.7 |
| 20260507020818 | 74 | 43 | 2.6 | 10.4 | 0.00 | 0.00 | 0.00 | 35 | 1019.4 |
| 20260507020218 | 74 | 56 | 2.6 | 12.2 | 0.00 | 0.00 | 0.00 | 33 | 1019.4 |
| 20260507015618 | 76 | 253 | 2.6 | 7.0 | 0.00 | 0.00 | 0.00 | 31 | 1019.3 |
| 20260507015019 | 78 | 23 | 2.6 | 10.4 | 0.00 | 0.00 | 0.00 | 23 | 1019.1 |
| 20260507014431 | 78 | 350 | 2.6 | 12.2 | 0.00 | 0.00 | 0.00 | 16 | 1018.7 |
| 20260507013843 | 78 | 348 | 5.2 | 14.8 | 0.00 | 0.00 | 0.00 | 14 | 1018.5 |
| 20260507013243 | 78 | 339 | 2.6 | 12.2 | 0.00 | 0.00 | 0.00 | 14 | 1018.5 |
| 20260507012630 | 78 | 336 | 2.6 | 9.6 | 0.00 | 0.00 | 0.00 | 14 | 1018.3 |
| 20260507012018 | 78 | 315 | 1.7 | 9.6 | 0.00 | 0.00 | 0.00 | 13 | 1018.3 |
| 20260507011418 | 79 | 328 | 1.7 | 11.3 | 0.00 | 0.00 | 0.00 | 12 | 1018.2 |
| 20260507010818 | 79 | 19 | 2.6 | 9.6 | 0.00 | 0.00 | 0.00 | 12 | 1018.2 |
| 20260507010218 | 80 | 297 | 3.5 | 12.2 | 0.00 | 0.00 | 0.00 | 12 | 1018.0 |
| 20260507005630 | 80 | 329 | 2.6 | 11.3 | 0.00 | 0.00 | 0.00 | 12 | 1018.0 |
| 20260507005031 | 81 | 319 | 2.6 | 11.3 | 0.00 | 0.00 | 0.00 | 11 | 1018.0 |
| 20260507004430 | 81 | 346 | 5.2 | 13.9 | 0.00 | 0.00 | 0.00 | 10 | 1017.9 |
| 20260507003818 | 82 | 351 | 1.7 | 11.3 | 0.00 | 0.00 | 0.00 | 11 | 1017.9 |
| 20260507003218 | 82 | 0 | 4.3 | 10.4 | 0.00 | 0.00 | 0.00 | 9 | 1017.8 |
| 20260507002618 | 83 | 318 | 0.9 | 10.4 | 0.00 | 0.00 | 0.00 | 11 | 1017.9 |
| 20260507002018 | 84 | 287 | 1.7 | 7.0 | 0.00 | 0.00 | 0.00 | 10 | 1017.8 |
| 20260507001430 | 86 | 238 | 1.7 | 7.0 | 0.00 | 0.00 | 0.00 | 8 | 1018.0 |
| 20260507000818 | 86 | 195 | 0.0 | 7.0 | 0.00 | 0.00 | 0.00 | 8 | 1017.9 |
| 20260507000219 | 86 | 158 | 4.3 | 11.3 | 0.00 | 0.00 | 0.00 | 7 | 1017.9 |
| 20260506235618 | 88 | 258 | 1.7 | 14.8 | 0.00 | 0.00 | 0.00 | 9 | 1017.9 |
| 20260506235018 | 88 | 294 | 4.3 | 18.2 | 0.00 | 0.00 | 0.00 | 8 | 1017.9 |
| 20260506234418 | 88 | 263 | 2.6 | 9.6 | 0.00 | 0.00 | 0.00 | 8 | 1017.9 |
| 20260506233818 | 88 | 245 | 3.5 | 9.6 | 0.00 | 0.00 | 0.00 | 7 | 1017.7 |
| 20260506233218 | 88 | 248 | 2.6 | 9.6 | 0.00 | 0.00 | 0.00 | 8 | 1017.9 |
| 20260506232618 | 90 | 158 | 0.0 | 2.6 | 0.00 | 0.00 | 0.00 | 6 | 1017.7 |
| 20260506232019 | 89 | 177 | 0.0 | 6.1 | 0.00 | 0.00 | 0.00 | 7 | 1017.7 |
| 20260506231430 | 88 | 193 | 0.0 | 10.4 | 0.00 | 0.00 | 0.00 | 7 | 1017.7 |
| 20260506230818 | 88 | 133 | 0.9 | 12.2 | 0.00 | 0.00 | 0.00 | 7 | 1017.7 |
| 20260506230230 | 89 | 212 | 1.7 | 7.0 | 0.00 | 0.00 | 0.00 | 7 | 1017.9 |
| 20260506225618 | 86 | 173 | 0.0 | 6.1 | 0.00 | 0.00 | 0.00 | 9 | 1018.0 |
| 20260506225018 | 86 | 251 | 1.7 | 9.6 | 0.00 | 0.00 | 0.00 | 9 | 1018.0 |
| 20260506224418 | 89 | 267 | 1.7 | 10.4 | 0.00 | 0.00 | 0.00 | 7 | 1018.1 |
| 20260506223818 | 89 | 175 | 1.7 | 10.4 | 0.00 | 0.00 | 0.00 | 7 | 1018.1 |
| 20260506223218 | 89 | 239 | 0.0 | 9.6 | 0.00 | 0.00 | 0.00 | 7 | 1018.0 |
| 20260506222630 | 89 | 231 | 0.0 | 7.8 | 0.00 | 0.00 | 0.00 | 6 | 1018.0 |
| 20260506222018 | 89 | 272 | 0.9 | 14.8 | 0.00 | 0.00 | 0.00 | 7 | 1018.1 |
| 20260506221418 | 89 | 235 | 1.7 | 10.4 | 0.00 | 0.00 | 0.00 | 7 | 1018.1 |
| 20260506220830 | 87 | 99 | 0.0 | 8.7 | 0.00 | 0.00 | 0.00 | 6 | 1018.3 |
| 20260506220218 | 89 | 174 | 2.6 | 14.8 | 0.00 | 0.00 | 0.00 | 7 | 1018.4 |
| 20260506215643 | 90 | 236 | 3.5 | 14.8 | 0.00 | 0.00 | 0.00 | 7 | 1018.6 |
| 20260506215018 | 88 | 211 | 3.5 | 15.6 | 0.00 | 0.00 | 0.00 | 7 | 1018.3 |
| 20260506214418 | 89 | 175 | 0.9 | 7.8 | 0.00 | 0.00 | 0.00 | 7 | 1018.4 |
| 20260506213818 | 88 | 186 | 3.5 | 10.4 | 0.00 | 0.00 | 0.00 | 6 | 1018.5 |
| 20260506213219 | 88 | 288 | 1.7 | 12.2 | 0.00 | 0.00 | 0.00 | 8 | 1018.6 |
| 20260506212618 | 89 | 136 | 1.7 | 11.3 | 0.00 | 0.00 | 0.00 | 8 | 1018.7 |
| 20260506212018 | 89 | 306 | 2.6 | 9.6 | 0.00 | 0.00 | 0.00 | 7 | 1018.7 |
| 20260506211431 | 88 | 227 | 1.7 | 13.0 | 0.00 | 0.00 | 0.00 | 7 | 1018.8 |
| 20260506210818 | 88 | 256 | 0.0 | 9.6 | 0.00 | 0.00 | 0.00 | 7 | 1018.8 |
| 20260506210218 | 89 | 223 | 0.0 | 13.0 | 0.00 | 0.00 | 0.00 | 7 | 1019.0 |
| 20260506205618 | 88 | 210 | 0.9 | 20.9 | 0.00 | 0.00 | 0.00 | 7 | 1019.1 |
| 20260506205018 | 88 | 204 | 9.6 | 16.5 | 0.00 | 0.00 | 0.00 | 9 | 1019.1 |
| 20260506204418 | 88 | 194 | 2.6 | 17.4 | 0.00 | 0.00 | 0.00 | 8 | 1019.1 |
| 20260506203830 | 88 | 228 | 4.3 | 18.2 | 0.00 | 0.00 | 0.00 | 8 | 1019.2 |
| 20260506203218 | 88 | 174 | 3.5 | 16.5 | 0.00 | 0.00 | 0.00 | 8 | 1019.2 |
| 20260506202618 | 89 | 226 | 4.3 | 16.5 | 0.00 | 0.00 | 0.00 | 8 | 1019.2 |
| 20260506202018 | 89 | 250 | 2.6 | 15.6 | 0.00 | 0.00 | 0.00 | 7 | 1019.4 |
| 20260506201431 | 89 | 167 | 1.7 | 13.9 | 0.00 | 0.00 | 0.00 | 8 | 1019.4 |
| 20260506200818 | 88 | 194 | 2.6 | 12.2 | 0.00 | 0.00 | 0.00 | 7 | 1019.4 |
| 20260506200230 | 89 | 220 | 0.9 | 13.9 | 0.00 | 0.00 | 0.00 | 6 | 1019.4 |
| 20260506195618 | 89 | 169 | 0.9 | 12.2 | 0.00 | 0.00 | 0.00 | 7 | 1019.5 |
| 20260506195018 | 88 | 158 | 2.6 | 13.9 | 0.00 | 0.00 | 0.00 | 7 | 1019.6 |
| 20260506194418 | 87 | 231 | 1.7 | 15.6 | 0.00 | 0.00 | 0.00 | 7 | 1019.6 |
| 20260506193843 | 88 | 226 | 3.5 | 16.5 | 0.00 | 0.00 | 0.00 | 8 | 1019.9 |
| 20260506193218 | 88 | 245 | 1.7 | 14.8 | 0.00 | 0.00 | 0.00 | 7 | 1019.9 |
| 20260506192618 | 88 | 225 | 3.5 | 12.2 | 0.00 | 0.00 | 0.00 | 8 | 1019.9 |
| 20260506192019 | 87 | 166 | 0.0 | 12.2 | 0.00 | 0.00 | 0.00 | 6 | 1020.1 |
| 20260506191418 | 88 | 250 | 2.6 | 14.8 | 0.00 | 0.00 | 0.00 | 7 | 1020.2 |
| 20260506190818 | 87 | 222 | 0.0 | 8.7 | 0.00 | 0.00 | 0.00 | 8 | 1020.1 |
| 20260506190218 | 87 | 167 | 0.0 | 15.6 | 0.00 | 0.00 | 0.00 | 8 | 1020.2 |
| 20260506185618 | 88 | 250 | 1.7 | 12.2 | 0.00 | 0.00 | 0.00 | 8 | 1020.2 |
| 20260506185018 | 88 | 249 | 6.1 | 11.3 | 0.00 | 0.00 | 0.00 | 8 | 1020.2 |
| 20260506184418 | 88 | 161 | 0.9 | 11.3 | 0.00 | 0.00 | 0.00 | 10 | 1020.3 |
| 20260506183818 | 86 | 260 | 0.0 | 11.3 | 0.00 | 0.00 | 0.00 | 8 | 1020.3 |
| 20260506183218 | 87 | 254 | 5.2 | 12.2 | 0.00 | 0.00 | 0.00 | 9 | 1020.5 |
| 20260506182618 | 86 | 245 | 3.5 | 7.8 | 0.00 | 0.00 | 0.00 | 10 | 1020.6 |
| 20260506182018 | 86 | 333 | 0.9 | 7.8 | 0.00 | 0.00 | 0.00 | 8 | 1020.6 |
| 20260506181418 | 86 | 277 | 0.0 | 15.6 | 0.00 | 0.00 | 0.00 | 8 | 1020.7 |
| 20260506180818 | 86 | 179 | 1.7 | 8.7 | 0.00 | 0.00 | 0.00 | 8 | 1020.8 |
| 20260506180218 | 85 | 166 | 6.1 | 12.2 | 0.00 | 0.00 | 0.00 | 8 | 1020.8 |
| 20260506175618 | 86 | 252 | 0.9 | 13.0 | 0.00 | 0.00 | 0.00 | 8 | 1020.8 |
| 20260506175018 | 85 | 196 | 1.7 | 14.8 | 0.00 | 0.00 | 0.00 | 8 | 1020.8 |
| 20260506174418 | 85 | 235 | 3.5 | 13.9 | 0.00 | 0.00 | 0.00 | 7 | 1020.6 |
| 20260506173818 | 86 | 222 | 1.7 | 13.9 | 0.00 | 0.00 | 0.00 | 7 | 1020.8 |
| 20260506173218 | 85 | 216 | 0.0 | 10.4 | 0.00 | 0.00 | 0.00 | 7 | 1020.8 |
| 20260506172618 | 85 | 231 | 1.7 | 12.2 | 0.00 | 0.00 | 0.00 | 8 | 1020.9 |